Location: ???? ????
(31.2831°N, 45.5190°E)
Time: 05:02:19
(UTC+00:00)

Lacrosse 5 rocket - Pass Details

Date: 24 February 2021
Orbit: 463 x 631 km, 57.0° (Epoch: 14 April)

Event Time Altitude Azimuth Distance (km) Brightness Sun altitude
Rises 15:51:56 0° 332° (NNW) 2,847 5.3 -13.5°
Reaches altitude 10° 15:54:29 10° 343° (NNW) 1,915 4.3 -14.0°
Maximum altitude 15:58:20 30° 45° (NE) 1,025 2.3 -14.8°
Enters shadow 15:59:29 26° 75° (ENE) 1,120 2.3 -15.1°
